Orbital Elements at Epoch 2459200.5 (2020-Dec-17.0) TDB
Reference: JPL 17 (heliocentric ecliptic J2000)
Element | Value | Uncertainty (1-sigma) | Units |
e | .04364746085219396 | 4.0058e-08 | |
a | 3.042425307414458 | 2.5267e-08 | au |
q | 2.909631167913362 | 1.314e-07 | au |
i | 2.11487306234131 | 5.4196e-06 | deg |
node | 157.3120204899572 | 0.00012897 | deg |
peri | 289.6386810798316 | 0.00014862 | deg |
M | 347.9225386882699 | 7.1575e-05 | deg |
tp | 2459265.528160429606 (2021-Feb-20.02816043) | 0.00038514 | TDB |
period | 1938.332663663473 5.31 | 2.4146e-05 6.611e-08 | d yr |
n | .1857266333837637 | 2.3136e-09 | deg/d |
Q | 3.175219446915555 | 2.6369e-08 | au |
|
| | Orbit Determination Parameters
Additional Information
|